Torna al catalogo

FENGYUN 1C DEB

AttivoSSO
NORAD 30609·DEBRIS·🇨🇳 China

Lanciato May 10, 1999 da Taiyuan Satellite Launch Center

Loading…

Prossimi Passaggi (prossime 24 ore)

TLE

AggiornatoSource: Space-Track

Epoca: Sep 14, 2026, 11:02 UTC

1 30609U 99025AMQ 26257.45995733  .00002502  00000-0  12739-2 0  9993
2 30609  98.5605 167.0612 0117492 346.8514  12.9603 14.13138265996202

Traccia FENGYUN 1C DEB in tempo reale con AllMySat

Download on the App Store